Terug naar catalogus

STARLINK-36783

ActiefCommunicatieVLEO
NORAD 67873·PAYLOAD·🇺🇸 United States

Gelanceerd Feb 20, 2026 vanaf Vandenberg Space Force Base

Loading…

Volgende Passages (komende 24 uur)

TLE

VersSource: CelesTrak SupGP

Epoch: Sep 15, 2026, 04:03 UTC

1 67873C 26034Z   26258.16923611  .00028292  00000+0  83567-3 0  2580
2 67873  53.1594  38.9570 0001060  75.5184 106.8693 15.34385095    16

Volg STARLINK-36783 in realtime met AllMySat

Download on the App Store